Other Surface Observations
Issued by NWS

Home | Current Version | Previous Version | Text Only | Print | Product List | Glossary On
Versions: 1 2 3 4 5 6 7 8 9 10 11 12 13 14 15 16 17 18 19 20 21 22 23 24 25 26 27 28 29 30 31 32 33 34 35 36 37 38 39 40 41 42 43 44 45 46 47 48 49 50
000
SXUS52 KTAE 162205
OSOTAE
OSOTAE
North Florida/South Alabama/Southwest Georgia Weather Roundup
National Weather Service Tallahassee Florida
500 PM EST MON JAN 16 2017

Note: "fair" indicates few or no clouds below 12,000 feet with no
significant weather and/or obstructions to visibility.

!FLZ017-115-028-034-025-162300
...North Florida...

CITY           SKY/WX    TMP DP  RH WIND       PRES   REMARKS
TALLAHASSEE    MOSUNNY   74  57  55 S9        30.22S
APALACHICOLA   SUNNY     70  63  78 SE9       30.21S
PERRY          SUNNY     77  52  41 SW8       30.24R
CROSS CITY     PTSUNNY   75  54  46 CALM      30.24R
JACKSONVILLE   PTCLDY    71  59  65 E10       30.25R
$$

!FLZ112-006-005-002-011-162300
...Florida Panhandle...

CITY           SKY/WX    TMP DP  RH WIND       PRES   REMARKS
MARIANNA       CLOUDY    77  56  48 S8        30.19S
BONIFAY        NOT AVBL
PANAMA CITY NW PTSUNNY   71  59  65 SE10      30.20R
TYNDALL AFB    DRIZZLE   74  59  59 S10       30.21R
TYND DRONE APT MOCLDY    74  59  59 MISG      30.21R
DE FUNIAK SPR  FAIR      73  54  51 S10       30.21R
EGLIN AFB      PTSUNNY   68  63  82 SE7       30.20R
DESTIN         CLOUDY    70  65  84 SE10      30.19S
HURLBURT       PTSUNNY   70  62  76 SE13      30.18R
CRESTVIEW      MOSUNNY   73  59  61 SE8       30.21R
PENSACOLA      PTSUNNY   72  66  81 SE12      30.18S
$$

!ALZ063-066-162300
...South Alabama...

CITY           SKY/WX    TMP DP  RH WIND       PRES   REMARKS
DOTHAN         PTSUNNY   75  56  51 S8        30.23R
OZARK CAIRNS   MOSUNNY   76  58  53 S8        30.19R
FT RUCKER HELI PTSUNNY   76  57  51 SW7       30.18S
RUCKER HELI 3  NOT AVBL
RUCKER HELI 2  FAIR      76  56  49 S6        30.19R
FLORALA APT    SUNNY     74  54  49 S15G22    30.21R
ANDALUSIA      MOSUNNY   77  55  46 SE8       30.18S
TROY           MOSUNNY   76  53  44 S10       30.19S
EUFALA         FAIR      76  54  46 S7        30.19S
MOBILE         PTSUNNY   73  63  70 SE12      30.17R
$$

!GAZ120>161-162300
...Southwest and South Central Georgia...

CITY           SKY/WX    TMP DP  RH WIND       PRES   REMARKS
THOMASVILLE    FAIR      77  54  44 SE6       30.24S
BAINBRIDGE     MOSUNNY   77  54  44 S9        30.22S
MOODY AFB      MOCLDY    75  50  41 E3        30.22S
VALDOSTA       PTCLDY    76  51  41 E7        30.23S
MOULTRIE       PTCLDY    75  52  43 CALM      30.24S
BLAKELY        PTSUNNY   77  54  44 CALM      30.22R
ALBANY         MOCLDY    75  53  46 S7        30.24S
TIFTON         CLOUDY    74  51  44 CALM      30.24R
FITZGERALD     FAIR      71  51  49 CALM      30.26S
CORDELE        NOT AVBL
AMERICUS       MOCLDY    72  50  46 SE6       30.25S
HOMERVILLE     FAIR      77  52  41 SE6       30.25R
$$

!GMZ750-755-770-775-162300
...Coastal and Buoy Obs...

STATION/POSITION TIME  TEMP    WIND        PRES    VSBY  WAVE
                       AIR SEA DIR/SP/G                  HT/PER
                 (UTC) (F)     (DEG/KT/KT) (MB)    (MI)  (FT/S)
KEATON BEACH     2200   69     180/  7/  7 1023.5F
CEDAR KEY        2100   73     100/  1/  1 1023.9S
C TOWER          2200   68     130/ 15/ 15 1023.2F
APALACHICOLA BUO 2050   71 72  120/ 17/ 19 1022.2          4/ 6
PANAMA CITY BUOY 2050   75 75              1021.0          6/ 7
MOBILE BUOY      NOT AVBL
ORANGE BCH AL BU 2150   68 66  100/  8/  8 1021.2S         4/ 6
$$




USA.gov is the U.S. government's official web portal to all federal, state and local government web resources and services.